EW5212 Weather Reports


time (UTC)temp
F
wind
direction
speed
knots
gust
knots
rain 1hr
in
rain 24hr
in
rain mn
in
humidity
%
barometer
mb
20260831042016 74 0.0 0.0 0.00 0.00 0.00 96 1020.2
20260831041016 74 0.0 0.0 0.00 0.00 0.00 96 1020.2
20260831040016 74 0.0 0.0 0.00 0.00 0.00 96 1020.2
20260831035015 74 0.0 0.0 0.00 0.00 0.00 96 1020.1
20260831034016 74 0.0 0.0 0.00 0.00 0.00 97 1020.3
20260831033016 74 0.0 0.0 0.00 0.00 0.00 97 1020.4
20260831032016 74 0.0 0.0 0.00 0.00 0.00 97 1020.4
20260831031016 74 0.0 0.0 0.00 0.00 0.00 96 1020.5
20260831030016 74 0.0 0.0 0.00 0.00 0.00 96 1020.6
20260831025015 74 0.0 0.0 0.00 0.00 0.00 96 1020.6
20260831024016 74 0.0 0.0 0.00 0.00 0.00 97 1020.7
20260831023036 74 0.0 0.0 0.00 0.00 0.00 96 1020.7
20260831022016 74 0.0 0.0 0.00 0.00 0.00 96 1020.7
20260831021016 74 0.0 0.0 0.00 0.00 0.00 96 1020.6
20260831020016 74 0.0 0.0 0.00 0.00 0.00 96 1020.6
20260831015037 74 0.0 0.0 0.00 0.00 0.00 96 1020.7
20260831014016 75 0.0 0.0 0.00 0.00 0.00 95 1020.7
20260831013017 75 0.0 0.0 0.00 0.00 0.00 95 1020.6
20260831012016 75 0.0 0.0 0.00 0.00 0.00 94 1020.7
20260831011016 75 0.0 0.0 0.00 0.00 0.00 94 1020.7
20260831010036 75 0.0 0.0 0.00 0.00 0.00 94 1020.6
20260831005016 76 0.0 0.0 0.00 0.00 0.00 92 1020.5
20260831004036 76 0.0 0.0 0.00 0.00 0.00 92 1020.1
20260831003016 77 0.0 0.0 0.00 0.00 0.00 90 1019.8
20260831002016 78 0.0 0.0 0.00 0.00 0.00 90 1019.7
20260831001015 78 0.0 0.0 0.00 0.00 0.00 88 1019.6
20260831000036 79 0.0 0.0 0.00 0.00 0.00 87 1019.7
20260830235015 80 0.0 0.0 0.00 0.00 0.00 86 1019.6
20260830234016 81 0.0 0.0 0.00 0.00 0.00 83 1019.7
20260830233015 83 0.0 0.0 0.00 0.00 0.00 80 1019.9
20260830232015 85 0.0 0.9 0.00 0.00 0.00 76 1020.1
20260830231016 87 0.0 1.7 0.00 0.00 0.00 70 1019.8
20260830230015 88 0.0 0.9 0.00 0.00 0.00 71 1019.9
20260830225015 90 0.0 0.0 0.00 0.00 0.00 67 1019.8
20260830224015 90 0.0 1.7 0.00 0.00 0.00 67 1019.8
20260830223037 90 270 1.7 3.5 0.00 0.00 0.00 64 1019.8
20260830222016 91 293 0.9 4.3 0.00 0.00 0.00 63 1019.8
20260830221015 91 270 0.9 5.2 0.00 0.00 0.00 65 1019.9
20260830220015 92 270 0.9 1.7 0.00 0.00 0.00 62 1019.9
20260830215015 92 0.0 1.7 0.00 0.00 0.00 64 1019.8
20260830214015 92 0.0 1.7 0.00 0.00 0.00 62 1019.8
20260830213016 91 270 0.9 3.5 0.00 0.00 0.00 62 1019.8
20260830212015 91 293 0.9 2.6 0.00 0.00 0.00 63 1019.6
20260830211015 92 0.0 1.7 0.00 0.00 0.00 65 1019.6
20260830210016 91 293 0.9 2.6 0.00 0.00 0.00 64 1019.6
20260830205015 91 270 0.9 2.6 0.00 0.00 0.00 64 1019.7
20260830204015 92 270 0.9 3.5 0.00 0.00 0.00 63 1019.8
20260830203016 91 338 0.9 2.6 0.00 0.00 0.00 63 1019.9
20260830202015 91 113 0.9 3.5 0.00 0.00 0.00 64 1020.1
20260830201015 90 270 1.7 6.1 0.00 0.00 0.00 67 1020.0
20260830200015 90 270 0.9 2.6 0.00 0.00 0.00 65 1020.1
20260830195015 90 90 0.9 5.2 0.00 0.00 0.00 67 1020.4
20260830194016 90 270 0.9 4.3 0.00 0.00 0.00 66 1020.6
20260830193015 89 0.0 1.7 0.00 0.00 0.00 67 1020.9
20260830192015 89 270 2.6 5.2 0.00 0.00 0.00 67 1021.1
20260830191015 90 270 0.9 3.5 0.00 0.00 0.00 66 1021.2
20260830190015 89 45 0.9 3.5 0.00 0.00 0.00 68 1021.3
20260830185015 90 270 0.9 4.3 0.00 0.00 0.00 66 1021.4
20260830184015 90 293 0.9 2.6 0.00 0.00 0.00 68 1021.6
20260830183015 90 270 1.7 6.1 0.00 0.00 0.00 67 1021.7
20260830182015 90 293 0.9 1.7 0.00 0.00 0.00 66 1021.8
20260830181015 89 0 0.9 1.7 0.00 0.00 0.00 70 1022.0
20260830180015 89 270 0.9 3.5 0.00 0.00 0.00 70 1022.0
20260830175015 89 270 0.9 5.2 0.00 0.00 0.00 69 1022.2
20260830174015 88 68 0.9 1.7 0.00 0.00 0.00 70 1022.3
20260830173015 88 90 0.9 3.5 0.00 0.00 0.00 71 1022.3
20260830172015 88 248 0.9 3.5 0.00 0.00 0.00 71 1022.5
20260830171015 87 270 1.7 7.0 0.00 0.00 0.00 72 1022.8
20260830170015 87 23 0.9 1.7 0.00 0.00 0.00 73 1022.8
20260830165015 86 270 0.9 5.2 0.00 0.00 0.00 73 1022.9
20260830164017 86 293 0.9 3.5 0.00 0.00 0.00 73 1023.0
20260830163015 85 270 1.7 3.5 0.00 0.00 0.00 73 1023.1
20260830162015 85 293 1.7 6.1 0.00 0.00 0.00 73 1023.2
20260830161017 85 270 0.9 3.5 0.00 0.00 0.00 73 1023.3
20260830160017 84 315 0.9 2.6 0.00 0.00 0.00 76 1023.4
20260830155017 84 68 0.9 2.6 0.00 0.00 0.00 76 1023.5
20260830154037 84 293 0.9 5.2 0.00 0.00 0.00 77 1023.6
20260830153017 84 270 1.7 5.2 0.00 0.00 0.00 77 1023.7
20260830152037 83 68 0.9 2.6 0.00 0.00 0.00 78 1023.7
20260830151015 82 270 0.9 2.6 0.00 0.00 0.00 78 1023.6
20260830150017 83 270 0.9 3.5 0.00 0.00 0.00 77 1023.7
20260830145017 82 338 0.9 3.5 0.00 0.00 0.00 79 1023.7
20260830144017 81 68 1.7 5.2 0.00 0.00 0.00 82 1023.8
20260830143037 80 270 0.9 2.6 0.00 0.00 0.00 83 1023.8
20260830142037 80 0.0 0.9 0.00 0.00 0.00 86 1023.7
20260830141037 79 270 0.9 4.3 0.00 0.00 0.00 87 1023.8
20260830140018 78 0.0 1.7 0.00 0.00 0.00 88 1023.8
20260830135017 79 270 0.9 3.5 0.00 0.00 0.00 87 1024.1
20260830134037 79 270 0.9 2.6 0.00 0.00 0.00 88 1024.3
20260830133017 79 0.0 0.9 0.00 0.00 0.00 90 1024.4
20260830132017 77 0.0 1.7 0.00 0.00 0.00 94 1024.5
20260830131037 75 90 0.9 2.6 0.00 0.00 0.00 96 1024.5
20260830130017 74 0.0 2.6 0.00 0.00 0.00 99 1024.5
20260830125017 73 0.0 0.9 0.00 0.00 0.00 100 1024.6
20260830124017 72 0.0 0.9 0.00 0.00 0.00 100 1024.7
20260830123017 72 0.0 2.6 0.00 0.00 0.00 100 1024.6
20260830122017 71 0.0 0.9 0.00 0.00 0.00 100 1024.6
20260830121016 71 0.0 0.0 0.00 0.00 0.00 100 1024.6
20260830120016 70 0.0 1.7 0.00 0.00 0.00 100 1024.6
20260830115017 69 0.0 0.9 0.00 0.00 0.00 100 1024.5
20260830114016 68 0.0 0.0 0.00 0.00 0.00 100 1024.4
20260830113017 68 0.0 0.0 0.00 0.00 0.00 100 1024.4
20260830112017 68 0.0 0.0 0.00 0.00 0.00 100 1024.4
20260830111017 67 0.0 0.0 0.00 0.00 0.00 100 1024.3
20260830110057 67 0.0 0.0 0.00 0.00 0.00 100 1024.2
20260830105017 67 0.0 0.0 0.00 0.00 0.00 100 1024.3
20260830104017 67 0.0 0.0 0.00 0.00 0.00 100 1024.2
20260830103017 67 0.0 0.0 0.00 0.00 0.00 100 1024.1
20260830102016 66 0.0 0.0 0.00 0.00 0.00 100 1024.0
20260830101016 66 0.0 0.0 0.00 0.00 0.00 100 1023.9
20260830100017 66 0.0 0.0 0.00 0.00 0.00 100 1023.9
20260830095017 66 0.0 0.0 0.00 0.00 0.00 100 1023.8
20260830094017 65 0.0 0.0 0.00 0.00 0.00 100 1023.6
20260830093016 65 0.0 0.0 0.00 0.00 0.00 100 1023.8
20260830092016 65 0.0 0.0 0.00 0.00 0.00 100 1023.8
20260830091017 65 0.0 0.0 0.00 0.00 0.00 100 1023.7
20260830090017 64 0.0 0.0 0.00 0.00 0.00 100 1023.6
20260830085017 64 0.0 0.0 0.00 0.00 0.00 100 1023.8
20260830084017 64 0.0 0.0 0.00 0.00 0.00 99 1023.8
20260830083017 64 0.0 0.0 0.00 0.00 0.00 99 1023.7
20260830082016 64 0.0 0.0 0.00 0.00 0.00 99 1023.7
20260830081016 64 0.0 0.0 0.00 0.00 0.00 99 1023.8
20260830080016 64 0.0 0.0 0.00 0.00 0.00 99 1023.9
20260830075016 65 0.0 0.0 0.00 0.00 0.00 99 1024.0
20260830074016 64 0.0 0.0 0.00 0.00 0.00 99 1023.9
20260830073017 65 0.0 0.0 0.00 0.00 0.00 99 1023.8
20260830072016 65 0.0 0.0 0.00 0.00 0.00 99 1023.8
20260830071017 65 0.0 0.0 0.00 0.00 0.00 99 1023.9
20260830070016 65 0.0 0.0 0.00 0.00 0.00 99 1024.1
20260830065019 65 0.0 0.0 0.00 0.00 0.00 99 1024.2
20260830064016 65 0.0 0.0 0.00 0.00 0.00 99 1024.2
20260830063017 65 0.0 0.0 0.00 0.00 0.00 99 1024.2
20260830062056 65 0.0 0.0 0.00 0.00 0.00 99 1024.3
20260830061116 65 0.0 0.0 0.00 0.00 0.00 99 1024.4
20260830060018 65 0.0 0.0 0.00 0.00 0.00 99 1024.4
20260830055016 65 0.0 0.0 0.00 0.00 0.00 99 1024.3
20260830054056 66 0.0 0.0 0.00 0.00 0.00 99 1024.2
20260830053016 66 0.0 0.0 0.00 0.00 0.00 99 1024.3
20260830052039 66 0.0 0.0 0.00 0.00 0.00 99 1024.4
20260830051016 66 0.0 0.0 0.00 0.00 0.00 99 1024.4
20260830050036 66 0.0 0.0 0.00 0.00 0.00 99 1024.6
20260830045036 66 0.0 0.0 0.00 0.00 0.00 98 1024.6
20260830044016 66 0.0 0.0 0.00 0.00 0.00 98 1024.7
20260830043016 67 0.0 0.0 0.00 0.00 0.00 98 1024.5